BSAT-4B

Last updated on Jan. 21, 2021, 6:16 a.m. UTC

1 46112U 20056A   21020.87271685 -.00000342  00000-0  00000-0 0  9996
2 46112   0.0509 147.3496 0000691  50.3704 346.7249  1.00273077  1608
UTC
Height (km)
Latitude
Longitude
Inclination
Orbital Period
UTC large
Height (km)
Speed (km/s)
/
Latitude / Longitude
Inclination (degrees)
Orbital Period (minutes)
Azimuth
Elevation
Range (km)
Doppler Factor
iOS Compass Heading
iOS Angle

Next 30 passes for location: Hong Kong

Rise time Rise Azimuth (degrees) Set time Set Azimuth (degrees) Duration Max altitude (degrees)

No matching passes for this satellites